Address 0xd95eb18e066d370745dcc8eb31b62ced6b21f00c

Txn Hash Method
Block
From
To
Value [Txn Fee]
0xf6a522c259fcafda4d0e248b67479a07cf8da6f8545dc139fd12d8dca3f0815eTransfer1016844152022-10-02 15:05:3025 mins ago0xd95eb18e066d370745dcc8eb31b62ced6b21f00cSELF0xd95eb18e066d370745dcc8eb31b62ced6b21f00c1 wei0
0x32ce5905bfcdd0227fa812f6f9f4bc86e2d5975a5ef9eea74643b59250ae5799Transfer1016826832022-10-02 14:38:1152 mins ago0xd95eb18e066d370745dcc8eb31b62ced6b21f00cSELF0xd95eb18e066d370745dcc8eb31b62ced6b21f00c1 wei0
0xce9d685b9de08cf0967af101bec42d0581b90dfd0ce85548abc4c4c7bd6a9edeTransfer1016807802022-10-02 14:06:191 hr 24 mins ago0xd95eb18e066d370745dcc8eb31b62ced6b21f00cSELF0xd95eb18e066d370745dcc8eb31b62ced6b21f00c1 wei0
0x18d4f05fa788a73bf7afaf0631182362ad8b06d7fa6c9cc1593f3b0adae865a8Transfer1016795602022-10-02 13:45:591 hr 44 mins ago0xd95eb18e066d370745dcc8eb31b62ced6b21f00cSELF0xd95eb18e066d370745dcc8eb31b62ced6b21f00c1 wei0
0x0a6b2d9970b617a60c1f46203ae4a1258cf8bd734dc4395f847f63d636598f77Transfer1016778002022-10-02 13:16:532 hrs 13 mins ago0xd95eb18e066d370745dcc8eb31b62ced6b21f00cSELF0xd95eb18e066d370745dcc8eb31b62ced6b21f00c1 wei0
0x667d61cf3dc8483a47a03445fed1be775aa0324d2fde3ddb7364ad34c660a3ddTransfer1016760202022-10-02 12:46:262 hrs 44 mins ago0xd95eb18e066d370745dcc8eb31b62ced6b21f00cSELF0xd95eb18e066d370745dcc8eb31b62ced6b21f00c1 wei0
0x6ccc29bb212235a9bbb4fa0e66ada039d09ebc2b0a8e12337c2213c10c7e8f75Transfer1016736352022-10-02 12:07:153 hrs 23 mins ago0xd95eb18e066d370745dcc8eb31b62ced6b21f00cSELF0xd95eb18e066d370745dcc8eb31b62ced6b21f00c1 wei0
0x80fc45200c1fd7268bfb5e78845ba5a2e45bb5d57d90573900a0df6d62122109Transfer1016717962022-10-02 11:37:273 hrs 53 mins ago0xd95eb18e066d370745dcc8eb31b62ced6b21f00cSELF0xd95eb18e066d370745dcc8eb31b62ced6b21f00c1 wei0
0x5c59f290b1cf155728ff312866d9d5d0849acccfd9ba25a189cfcec7a7b56b65Transfer1016698702022-10-02 11:05:404 hrs 24 mins ago0xd95eb18e066d370745dcc8eb31b62ced6b21f00cSELF0xd95eb18e066d370745dcc8eb31b62ced6b21f00c1 wei0
0xaec71c13de43bd24d261c660ab6a727777c05a0fff9f877435cd6e8d512237d5Transfer1016682742022-10-02 10:39:584 hrs 50 mins ago0xd95eb18e066d370745dcc8eb31b62ced6b21f00cSELF0xd95eb18e066d370745dcc8eb31b62ced6b21f00c1 wei0
0x8f1260e4e94fd6a9b3a0cfdd7c6da2e9e9d71675ea6e4d2fb0ded6123a9ac6e3Transfer1016661792022-10-02 10:04:435 hrs 25 mins ago0xd95eb18e066d370745dcc8eb31b62ced6b21f00cSELF0xd95eb18e066d370745dcc8eb31b62ced6b21f00c1 wei0
0xe6853d7084cf6f7d4a3fc24fd38309f623dc2b5772516fc1c38795011e2dd89eTransfer1016645412022-10-02 9:39:135 hrs 51 mins ago0xd95eb18e066d370745dcc8eb31b62ced6b21f00cSELF0xd95eb18e066d370745dcc8eb31b62ced6b21f00c1 wei0
0x3fddf86e6a23c81cd0bfa75abe7d3e7efafc25392d11d19295cb509c78b38ee5Transfer1016625382022-10-02 9:07:146 hrs 23 mins ago0xd95eb18e066d370745dcc8eb31b62ced6b21f00cSELF0xd95eb18e066d370745dcc8eb31b62ced6b21f00c1 wei0
0xf4983318d2a96211449189e6ed8e0019d9b17b4a9935a6a2c327fedf0495fee6Transfer1016609662022-10-02 8:41:336 hrs 49 mins ago0xd95eb18e066d370745dcc8eb31b62ced6b21f00cSELF0xd95eb18e066d370745dcc8eb31b62ced6b21f00c1 wei0
0xb6c680ada720d45ec1e292a3753686bb0b302ab3d9ba990e92e9b57469c03410Transfer1016587632022-10-02 8:06:327 hrs 24 mins ago0xd95eb18e066d370745dcc8eb31b62ced6b21f00cSELF0xd95eb18e066d370745dcc8eb31b62ced6b21f00c1 wei0
0x024778e727be5b2054eab30306d652aa17695e5caafbdd88539776be932cb8d5Transfer1016570802022-10-02 7:39:277 hrs 51 mins ago0xd95eb18e066d370745dcc8eb31b62ced6b21f00cSELF0xd95eb18e066d370745dcc8eb31b62ced6b21f00c1 wei0
0x3257b85f0b6c2a7c7f632c5d68489e31e143273c7601ba4bfd5cc47691fc0c58Transfer1016551712022-10-02 7:08:428 hrs 21 mins ago0xd95eb18e066d370745dcc8eb31b62ced6b21f00cSELF0xd95eb18e066d370745dcc8eb31b62ced6b21f00c1 wei0
0xfc0ec271fa6d34445273def334e5e8f661f8ccbaa95f348be83c8112210c1bdfTransfer1016536512022-10-02 6:44:158 hrs 46 mins ago0xd95eb18e066d370745dcc8eb31b62ced6b21f00cSELF0xd95eb18e066d370745dcc8eb31b62ced6b21f00c1 wei0
0xb7999aeebd4a5a5d53203d20ade1cefd27a13fab11b6ad66861d062ae5619f7bTransfer1016514552022-10-02 6:09:569 hrs 20 mins ago0xd95eb18e066d370745dcc8eb31b62ced6b21f00cSELF0xd95eb18e066d370745dcc8eb31b62ced6b21f00c1 wei0
0x94fb90e7195896f286c90caa6e65b0e28694c80a36a3e03e8faaf3d7374970baTransfer1016500762022-10-02 5:49:039 hrs 41 mins ago0xd95eb18e066d370745dcc8eb31b62ced6b21f00cSELF0xd95eb18e066d370745dcc8eb31b62ced6b21f00c1 wei0
0x3ecf83706f135227cbb1d281ada48ef1a0176d762326a78c965e0d18d6a1b6bfTransfer1016487302022-10-02 5:27:2410 hrs 3 mins ago0xd95eb18e066d370745dcc8eb31b62ced6b21f00cSELF0xd95eb18e066d370745dcc8eb31b62ced6b21f00c1 wei0
0xc6bb15ecae5052468bb8adbdf729ff4d444efa386adf6cff3e03f575ef256e7dTransfer1016469652022-10-02 4:58:2310 hrs 32 mins ago0xd95eb18e066d370745dcc8eb31b62ced6b21f00cSELF0xd95eb18e066d370745dcc8eb31b62ced6b21f00c1 wei0
0x7d480bad56b77b8eee29137c5d93114cd47487b81673f96feb8fc8a08f9db45fTransfer1016445242022-10-02 4:17:2411 hrs 13 mins ago0xd95eb18e066d370745dcc8eb31b62ced6b21f00cSELF0xd95eb18e066d370745dcc8eb31b62ced6b21f00c1 wei0
0x61c8407479ba3ba3d9c167f9825508a1325ac5103fdf3ea0d7df69a05e0380acTransfer1016435792022-10-02 4:01:3111 hrs 29 mins ago0xd95eb18e066d370745dcc8eb31b62ced6b21f00cSELF0xd95eb18e066d370745dcc8eb31b62ced6b21f00c1 wei0
0x53e56cccf15ac2aab25476299fa8230f482d33a4dc4085d28fd2a4b3f54539f6Transfer1016349372022-10-02 1:36:1013 hrs 54 mins ago0xd95eb18e066d370745dcc8eb31b62ced6b21f00cSELF0xd95eb18e066d370745dcc8eb31b62ced6b21f00c1 wei0
[ Download CSV Export 
Parent Txn Hash Block From To Value
Loading

Contract Name:
0

Compiler Version
0

Optimization Enabled:
0

Other Settings:
-NA-
Block Transaction Gas Used Reward
Age Block Fee Address BC Fee Address Voting Power Jailed Incoming
Block Uncle Number Difficulty Gas Used Reward
Loading